Weather in Kosulino

Russia / Sverdlovsk Oblast     56°44′10″N   60°57′45″E
temp.,
°C
wind,
m/s
gust,
m/s
humid.,
%
clouds,
%
prec.,
mm/h
press.,
hPa
HPBL,
m
28 july, wed
wed2823:00+10nw36731 0.0 1011107
02:00+7nw24855 0.0 101176
05:00+6wnw26909 0.0 1011128
08:00+12wnw485788 0.0 10111425
11:00+13wnw5849100 0.0 10111709
14:00+13wnw5864100 0.3 10111296
17:00+15wnw574989 0.4 10101834
20:00+13wnw386366 0.0 1011919
29 july, thu
thu2923:00+7wnw23836 0.0 101257
02:00+6w26915 0.0 1012124
05:00+5wsw310955 0.0 1012220
08:00+12w596093 0.0 1011468
11:00+18w694674 0.0 10091932
14:00+20w51140100 0.0 10082922
17:00+21w61143100 0.0 10072469
20:00+17wnw226618 0.1 100733
30 july, fri
fri3023:00+13ssw378937 0.4 1007147
02:00+11wsw389432 0.1 1007185
05:00+13wsw3109696 0.2 1007337
08:00+15ssw1391100 0.0 1007166
11:00+18sse356916 0.1 1005845
14:00+19sse4460100 0.0 10041230
17:00+21wsw345999 0.1 10041166
20:00+18w48725 0.1 1004613
31 july, sat
sat3123:00+14wsw310955 0.1 1005279
02:00+15wsw412925 0.0 1004410
05:00+15w413935 0.0 1005534
08:00+17wnw5108153 0.0 1007617
11:00+23wnw465411 0.0 10081121
14:00+27wnw464024 0.0 10082221
17:00+27w4539100 0.0 10082256
20:00+21wsw236489 0.0 100946
1 august, sun
sun123:00+18sw346869 0.0 101067
02:00+16ssw277710 0.0 1009107
05:00+17sw3117798 0.0 1009213
08:00+21sw4106312 0.1 1009365
11:00+27wsw584593 0.1 10081368
14:00+30wsw583899 0.0 10072708
17:00+26w475631 0.0 1008733
20:00+23ssw267336 0.4 1008153